Location: ??????
(55.6130°N, 37.7882°E)
Time: 15:59:22
(UTC+00:00)

deb Kosmos-1275 - Visible Passes

Search period start: 08 September 2024 00:00
Search period end: 18 September 2024 00:00
Orbit: 640 x 678 km, 82.8° (Epoch: 07 September)

Date Brightness Start Highest point End Pass type
(mag) Time Alt. Az. Time Alt. Az. Time Alt. Az.
08 Sep ? 00:23:15 10° NNW 00:27:45 58° W 00:29:28 34° SSW visible
08 Sep ? 23:14:29 10° N 23:18:53 44° ENE 23:20:35 31° ESE visible
09 Sep ? 00:53:29 10° NNW 00:57:24 29° W 00:58:31 26° WSW visible
09 Sep ? 22:06:26 10° NNE 22:09:23 17° ENE 22:11:39 12° E visible
09 Sep ? 23:44:12 10° NNW 23:48:47 89° E 23:49:35 61° SSE visible
10 Sep ? 01:24:11 10° NW 01:26:46 15° W 01:27:31 15° W visible
10 Sep ? 22:35:31 10° N 22:39:32 29° ENE 22:40:37 26° E visible
11 Sep ? 00:14:02 10° NNW 00:18:23 45° W 00:18:33 45° W visible
11 Sep ? 21:28:06 10° NNE 21:29:37 11° NE 21:31:07 10° ENE visible
11 Sep ? 23:04:52 10° N 23:09:22 56° ENE 23:09:32 56° E visible
12 Sep ? 00:44:06 10° NNW 00:47:27 23° W 00:47:27 23° W visible
12 Sep ? 21:56:19 10° NNE 21:59:42 20° ENE 22:00:28 19° ENE visible
12 Sep ? 23:34:21 10° NNW 23:38:22 64° NW 23:38:22 64° NW visible
13 Sep ? 01:14:59 10° NW 01:16:18 12° WNW 01:16:18 12° WNW visible
13 Sep ? 22:25:15 10° N 22:29:15 36° ENE 22:29:15 36° ENE visible
14 Sep ? 00:03:58 10° NNW 00:07:10 32° WNW 00:07:10 32° WNW visible
14 Sep ? 21:17:04 10° NNE 21:19:23 14° NE 21:20:03 13° ENE visible
14 Sep ? 22:54:23 10° N 22:57:58 52° NNE 22:57:58 52° NNE visible
15 Sep ? 00:33:55 10° NW 00:35:52 17° WNW 00:35:52 17° WNW visible
15 Sep ? 21:45:24 10° N 21:48:42 24° NE 21:48:42 24° NE visible
15 Sep ? 23:23:38 10° NNW 23:26:36 38° NW 23:26:36 38° NW visible
16 Sep ? 22:14:09 10° N 22:17:17 35° NNE 22:17:17 35° NNE visible
16 Sep ? 23:53:03 10° NNW 23:55:11 22° NW 23:55:11 22° NW visible
17 Sep ? 21:05:24 10° NNE 21:07:53 16° NE 21:07:53 16° NE visible
17 Sep ? 22:43:03 10° N 22:45:47 36° N 22:45:47 36° N visible
